Regional Weather Roundup
Issued by NWS Grand Forks, ND

Home | Current Version | Previous Version | Graphics & Text | Print | Product List | Glossary On
Versions: 1 2 3 4 5 6 7 8 9 10 11 12 13 14 15 16 17 18 19 20 21 22 23 24 25 26 27 28 29 30 31 32 33 34 35 36 37 38 39 40 41 42 43 44 45 46 47 48 49 50
000
ASUS43 KFGF 262031
RWRFGF
PRAIRIE TO PINES  WEATHER ROUNDUP
NATIONAL WEATHER SERVICE EASTERN NORTH DAKOTA/GRAND FORKS ND
300 PM CDT MON SEP 26 2016

 **SATELLITE DATA USED TO AUGMENT SKY COVER AT AUTOMATED STATIONS**
 *****  WEATHER ACROSS EASTERN NORTH DAKOTA  *****

CITY           SKY/WX    TMP DP  RH WIND       PRES   REMARKS
GRAND FORKS    MOSUNNY   63  41  44 NW28G35   29.91F
GRAND FRKS AFB SUNNY     63  39  41 NW23G31   29.92F
DEVILS LAKE    SUNNY     62  31  31 NW24G36   29.99F
FARGO          SUNNY     66  33  29 NW26G37   29.93F
WAHPETON ARPT  CLEAR     66  27  22 NW26G38   29.95S
$$

 ***** WEATHER ACROSS CENTRAL AND WESTERN NORTH DAKOTA  *****

CITY           SKY/WX    TMP DP  RH WIND       PRES   REMARKS
BISMARCK       SUNNY     67  33  28 NW18G28   30.12F
MINOT          SUNNY     66  34  30 W20G33    30.10F
JAMESTOWN      SUNNY     64  36  35 NW23G36   30.02F
MINOT AFB      SUNNY     65  34  31 NW24      30.08F
GARRISON         N/A     65  35  33 NW23G36   30.11F
WILLISTON      SUNNY     68  36  30 W15       30.17F
DICKINSON      SUNNY     64  33  31 NW14G25   30.17F
HETTINGER      SUNNY     68  38  33 NW17      30.19F
$$

 *****  OTHER AIRPORT OBSERVATIONS IN OUR AREA  *****

CITY           SKY/WX    TMP DP  RH WIND       PRES   REMARKS
WALHALLA       FAIR      61  57  88 NW21G29   29.93S
GRAFTON AIRPOR FAIR      63  43  48 NW16G31   29.93F
VALLEY CITY AR FAIR      64  32  29 NW28G38   30.01F
CANDO          FAIR      64  25  22 NW23G33   30.02S
CAVALIER APRT  FAIR      63  41  45 NW20G31   29.92S
GWINNER        FAIR      70  32  24 NW24G33   30.01S
SHEYENNE NWR     N/A     67  28  23 NW21      29.95S
ROLLA          FAIR      63  27  25 NW25G32   30.02S
 ***** THE ABOVE OBSERVATIONS ARE NON NWS ARE NOT QUALITY
       CONTROLLED AND MAY MIS-REPORT RAIN FOR SNOW...
$$

  *****  WEATHER ACROSS NORTHERN MINNESOTA  *****

CITY           SKY/WX    TMP DP  RH WIND       PRES   REMARKS
FLAG ISLAND    CLOUDY    54  46  76 W22G29    29.72S
WARROAD        CLOUDY    55  46  71 W16G26    29.79S
ROSEAU         CLOUDY    55  46  71 NW20G26   29.82R
HALLOCK        MOSUNNY   61  45  55 NW20G30   29.89S
THF RVR FALLS  CLOUDY    57  42  57 NW22G30   29.90S
BAUDETTE       CLOUDY    53  44  71 NW23G32   29.74S
WASKISH        CLOUDY    54  46  76 W24G30    29.78S
CROOKSTON      PTSUNNY   61  43  51 NW23G29   29.91S
STEPHEN NDAWN    N/A     57  45  62 NW18        N/A
GREENBUSH NDAW   N/A     55  46  71 NW23        N/A
$$
  *****  WEATHER ACROSS CENTRAL AND WEST MINNESOTA  *****

CITY           SKY/WX    TMP DP  RH WIND       PRES   REMARKS
FOSSTON        PTSUNNY   57  39  51 NW21G29   29.90S
BEMIDJI        CLOUDY    56  41  58 NW28G36   29.84S
PARK RAPIDS    PTSUNNY   60  37  42 NW25G36   29.87S
ELBOW LAKE     FAIR      65  32  29 NW23G33   29.95S
WADENA         MOSUNNY   61  37  41 NW21G32   29.90S
DETROIT LAKES  SUNNY     61  37  41 NW28G36   29.93R
MOORHEAD       SUNNY     66  32  28 NW24G37   29.93F
FERGUS FALLS   SUNNY     64  32  29 NW24G36   29.95S
MORRIS MN      SUNNY     68  30  24 NW30G44   29.94F
STAPLES        PTSUNNY   59  34  38 NW23G38   29.89R
$$
  *****  WEATHER ELSEWHERE ACROSS MINNESOTA  *****

CITY           SKY/WX    TMP DP  RH WIND       PRES   REMARKS
DULUTH         CLOUDY    53  43  68 W21G30    29.73R
INTRNTL FALLS  LGT RAIN  50  48  93 W14G23    29.67R
ELY            RAIN      48  46  93 W17G29    29.63R
CLOQUET        LGT RAIN  54  41  62 W14G23    29.76S
WHEATON        SUNNY     70  36  28 W25G33    29.98F
BRAINERD       CLOUDY    59  37  44 NW24G31   29.86S
HIBBING        LGT RAIN  49  44  83 W13G24    29.73R
ALEXANDRIA     SUNNY     64  29  26 NW29G39   29.93F
SAINT CLOUD    SUNNY     63  36  36 NW22G35   29.89F
MINNEAPOLIS    MOSUNNY   64  37  36 NW21G32   29.89F
$$

  *****  WEATHER ACROSS SOUTH DAKOTA  *****

CITY           SKY/WX    TMP DP  RH WIND       PRES   REMARKS
SIOUX FALLS    MOSUNNY   70  39  32 W18G32    30.08F
BROOKINGS      SUNNY     66  32  28 NW18G32   30.05F
WATERTOWN      SUNNY     66  33  29 NW23G32   30.04F
HURON          SUNNY     73  32  22 NW22G33   30.07F
SISSETON         N/A     69  30  23 NW28G38   29.98F
ABERDEEN       SUNNY     70  29  21 NW20G30   30.06F
MITCHELL       MOSUNNY   74  35  24 NW14G28   30.10F
PIERRE         SUNNY     72  38  29 NW15G21   30.13F
MOBRIDGE       SUNNY     72  34  24 NW18G28   30.10F
RAPID CITY     SUNNY     72  41  32 N23G31    30.21F
$$

  *****  SOME WEATHER IN NEARBY STATES *****

CITY           SKY/WX    TMP DP  RH WIND       PRES   REMARKS
GLASGOW MT     SUNNY     69  41  36 W10       30.19F
GREAT FALLS MT CLOUDY    76  40  27 SW16      30.21F
CHEYENNE WY    SUNNY     71  33  24 NW13G21   30.36F
SCOTTSBLUFF NE SUNNY     74  39  28 NW10      30.28F
OMAHA NE       MOSUNNY   77  41  27 NW20      30.13F
DES MOINES IA  MOSUNNY   74  38  27 NW22G35   30.07F
DAVENPORT IA   SUNNY     71  32  23 W17G28    30.01F
CHICAGO IL     MOSUNNY   69  35  28 W22G30    29.93S
EAU CLAIRE WI  MOSUNNY   61  39  44 W18G29    29.84S
LA CROSSE WI   MOSUNNY   69  36  29 W21G35    29.87F
$$

  *****  SOME NATIONAL WEATHER *****

CITY           SKY/WX    TMP DP  RH WIND       PRES   REMARKS
LA GUARDIA NY  PTSUNNY   71  51  49 S16       30.08F
RALEIGH NC     PTSUNNY   76  64  66 S6        30.05F
ATLANTA GA     MOSUNNY   88  61  40 SE8       30.01F
NEW ORLEANS LA MOSUNNY   94  67  41 N6        29.95F HX  97
OKLAHOMA CITY  MOSUNNY   76  37  24 N15       30.22F
ALBUQUERQUE NM PTSUNNY   68  31  25 SE18      30.38F
SALT LAKE CITY MOSUNNY   69  47  45 NW3       30.35F
LOS ANGELES CA MOSUNNY  100  26   7 W12       29.90F HX  93
BOISE ID       SUNNY     79  36  21 SE8       30.27F
SEATTLE WA     MOSUNNY   71  55  56 CALM      30.07F
$$

*** WEATHER ACROSS MANITOBA...SASKATCHEWAN AND ONTARIO ***
                ***ONTARIO***

CITY           SKY/WX    TMP DP  RH WIND       PRES   REMARKS
GERALDTON      LGT RAIN  55  52  88 S5        29.37S
THUNDER BAY    CLOUDY    55  50  82 W18G30    29.43S
SIOUX LOOKOUT  DRIZZLE   50  48  93 NW18      29.48
TORONTO        CLOUDY    64  61  88 SW8       29.82R
BIG TROUT LK   LGT RAIN  55  55 100 E3        29.45  FOG
PICKLE LAKE    DRIZZLE   52  52 100 NW7       29.39R FOG
DRYDEN         LGT RAIN  50  46  87 NW18G29   29.55S
KENORA         LGT RAIN  50  46  87 NW14G25   29.67R
$$
                *** MANITOBA***

CITY           SKY/WX    TMP DP  RH WIND       PRES   REMARKS
BRANDON        SUNNY     63  32  31 NW26G35   30.00F
DAUPHIN        SUNNY     63  39  42 N16       29.97F
ISLAND LAKE    LGT RAIN  50  48  93 N16G28    29.68R
PILOT MOUND      N/A     59  37  44 NW28G36     N/A
THE PAS        MOSUNNY   57  41  54 NW15G21   30.00S
THOMPSON       LGT RAIN  52  43  71 NW14G23   29.87R
WINNIPEG       PTSUNNY   55  46  71 NW29G39   29.88S
LYNN LAKE      CLOUDY    50  41  71 NW12G21   30.00S
CHURCHILL      CLOUDY    46  43  87 N30G40    29.74R
GILLAM         DRIZZLE   48  46  93 N21G26    29.72R
$$
                ***SASKATCHEWAN***

CITY           SKY/WX    TMP DP  RH WIND       PRES   REMARKS
ESTEVAN        MOSUNNY   66  36  32 NW15G25   30.13F
KINDERSLEY     MOSUNNY   68  37  32 S9        30.10F
LLOYDMINSTER   MOSUNNY   68  41  37 S14       30.04F
PRINCE ALBERT  MOSUNNY   64  39  39 N8        30.08F
REGINA         MOSUNNY   64  36  34 NW10G21   30.14F
YORKTON        SUNNY     61  32  33 NW18G30   30.07F
N. BATTLEFORD  SUNNY     68  36  30 S10       30.10F
LA RONGE       MOSUNNY   63  36  36 NW7       30.06F
SASKATOON      MOSUNNY   64  36  34 NW5       30.12F
SWIFT CURRENT  SUNNY     66  37  34 VRB2      30.14F
$$
NOTE: THESE ARE AUTOMATED STATIONS WITH LIMITED QUALITY CONTROL
      "FAIR" INDICATES FEW OR NO CLOUDS BELOW 12,000 FEET WITH NO
      SIGNIFICANT WEATHER AND/OR OBSTRUCTIONS TO VISIBILITY.
      SKY/WX - SKY CONDITION AND SIGNIFICANT WEATHER.
      TMP - AIR TEMPERATURE.    DP   - DEWPOINT TEMPERATURE.
      RH  - RELATIVE HUMIDITY.  PRES - PRESSURE.
      HX  - HEAT INDEX.         WCI  - WIND CHILL INDEX.
$




USA.gov is the U.S. government's official web portal to all federal, state and local government web resources and services.